{"data":{"norad_id":56017,"intl_designator":"2023-042AH","name":"STARLINK-5934","alt_names":[],"object_type":"PAYLOAD","status":"ACTIVE","operator":null,"country":"US","launch_date":"2023-03-24","launch_site_code":"AFETR","launch_vehicle":null,"mission":null,"orbit_class":"UNKNOWN","rcs_meters":null,"size_class":null,"mass_kg":null,"dimensions":null,"purposes":["comms"],"wikipedia_slug":null,"has_3d_model":false,"image_url":null,"decayed_at":null,"tle_current":{"epoch":"2026-09-20T08:11:41.392320Z","epoch_age_seconds":119691,"freshness":"FRESH","line1":"1 56017U 23042AH  26263.34145130  .00000894  00000+0  42013-4 0  9994","line2":"2 56017  43.0051  26.0481 0001927 268.9441  91.1190 15.27578190192804","mean_motion":15.2757819,"eccentricity":0.0001927,"inclination_deg":43.0051,"raan_deg":26.0481,"arg_perigee_deg":268.9441,"mean_anomaly_deg":91.119,"bstar":4.2013e-5,"rev_number":19280,"period_min":94.266860408632,"perigee_km":481.73236423105,"apogee_km":484.37666744125,"semimajor_km":6861.1915158361,"source":"CELESTRAK","updated_at":"2026-09-21T09:00:33.355658Z"}}}